Weather History for Cando, ND

Change the Weather History Date:

Tuesday, November 20, 2012

  Actual Average (KDVL) Record (KDVL)
Temperature  
Mean Temperature 27 °F -  
Max Temperature 39 °F 31 °F 55 °F (1989)
Min Temperature 15 °F 16 °F -6 °F (1950)
Degree Days  
Heating Degree Days 38    
Moisture  
Dew Point 29 °F    
Average Humidity 96    
Maximum Humidity 100    
Minimum Humidity 75    
Precipitation  
Precipitation 0.00 in - - ()
Sea Level Pressure  
Sea Level Pressure 29.91 in    
Wind  
Wind Speed 8 mph (South)    
Max Wind Speed 15 mph    
Max Gust Speed -    
Visibility 8 miles    
Events Fog    
Averages and records for this station are not official NWS values.
T = Trace of Precipitation, MM = Missing Value Source: NWS Daily Summary

Daily Weather History Graph

Daily Weather History Graph

Search for Another Location

Airport:

Trip Planner

Search our weather history database for the weather conditions in past years. The results will help you decide how hot, cold, wet, or windy it might be!

Date:

Astronomy

Nov. 20, 2012 Rise Set
Actual Time 7:53 AM CST 4:51 PM CST
Civil Twilight 7:18 AM CST 5:26 PM CST
Nautical Twilight 6:39 AM CST 6:05 PM CST
Astronomical Twilight 6:02 AM CST 6:42 PM CST
Moon 1:11 PM CST (11/20) No Moon Set
Length of Visible Light 10h 08m
Length of Day
8h 58m
First Quarter, 51% of the Moon is Illuminated
Nov 20
First Quarter
Nov 28
Full
Dec 6
Last Quarter
Dec 13
New
Dec 19
First Quarter

Hourly Weather History & Observations

Time (CST) Temp. Windchill Dew Point Humidity Pressure Visibility Wind Dir Wind Speed Gust Speed Precip Events Conditions
12:15 AM 15.8 °F 10.2 °F 14.0 °F 93% 30.10 in 0.2 mi SE 3.5 mph - N/A Fog Light Freezing Fog
12:35 AM 15.8 °F 6.1 °F 15.8 °F 100% 30.10 in 0.2 mi ESE 6.9 mph - N/A Fog Light Freezing Fog
12:55 AM 17.6 °F 6.4 °F 17.6 °F 100% 30.09 in 0.2 mi SE 9.2 mph - N/A Fog Light Freezing Fog
1:15 AM 15.8 °F 5.1 °F 15.8 °F 100% 30.10 in 0.2 mi SE 8.1 mph - N/A Fog Light Freezing Fog
1:35 AM 15.8 °F 4.2 °F 15.8 °F 100% 30.08 in 0.2 mi SE 9.2 mph - N/A Fog Light Freezing Fog
1:55 AM 17.6 °F 5.7 °F 15.8 °F 93% 30.07 in 1.0 mi SE 10.4 mph - N/A   Clear
2:15 AM 17.6 °F 5.0 °F 17.6 °F 100% 30.05 in 2.5 mi SE 11.5 mph - N/A   Clear
2:35 AM 19.4 °F 9.5 °F 19.4 °F 100% 30.05 in 4.0 mi SSE 8.1 mph - N/A   Clear
6:15 AM 21.2 °F 9.5 °F 21.2 °F 100% 30.01 in 5.0 mi SE 11.5 mph - N/A   Clear
6:35 AM 23.0 °F 10.6 °F 23.0 °F 100% 30.00 in 5.0 mi SSE 13.8 mph - N/A   Clear
6:55 AM 23.0 °F 11.1 °F 23.0 °F 100% 29.99 in 6.0 mi SSE 12.7 mph - N/A   Clear
7:15 AM 24.8 °F 13.4 °F 24.8 °F 100% 29.99 in 5.0 mi SSE 12.7 mph - N/A   Clear
7:35 AM 28.4 °F 18.5 °F 28.4 °F 100% 29.98 in 9.0 mi SSE 11.5 mph - N/A   Clear
7:55 AM 28.4 °F 18.0 °F 28.4 °F 100% 29.97 in 10.0 mi South 12.7 mph - N/A   Clear
8:15 AM 28.4 °F 17.5 °F 28.4 °F 100% 29.97 in 10.0 mi South 13.8 mph - N/A   Clear
8:35 AM 28.4 °F 18.0 °F 28.4 °F 100% 29.97 in 10.0 mi South 12.7 mph - N/A   Clear
8:55 AM 28.4 °F 19.7 °F 28.4 °F 100% 29.97 in 10.0 mi South 9.2 mph - N/A   Clear
9:15 AM 28.4 °F 19.7 °F 28.4 °F 100% 29.97 in 10.0 mi South 9.2 mph - N/A   Clear
9:35 AM 30.2 °F 20.8 °F 30.2 °F 100% 29.97 in 10.0 mi South 11.5 mph - N/A   Clear
9:55 AM 30.2 °F 20.2 °F 30.2 °F 100% 29.96 in 10.0 mi South 12.7 mph - N/A   Clear
10:15 AM 32.0 °F 23.0 °F 32.0 °F 100% 29.95 in 10.0 mi South 11.5 mph - N/A   Clear
10:35 AM 32.0 °F 23.6 °F 32.0 °F 100% 29.95 in 10.0 mi South 10.4 mph - N/A   Clear
10:55 AM 33.8 °F 24.3 °F 32.0 °F 93% 29.93 in 10.0 mi South 13.8 mph - N/A   Clear
11:15 AM 35.6 °F 27.1 °F 32.0 °F 87% 29.93 in 10.0 mi South 12.7 mph - N/A   Clear
11:35 AM 35.6 °F 28.6 °F 32.0 °F 87% 29.93 in 10.0 mi South 9.2 mph - N/A   Clear
11:55 AM 37.4 °F 31.4 °F 32.0 °F 81% 29.92 in 10.0 mi South 8.1 mph - N/A   Clear
12:15 PM 37.4 °F 29.3 °F 32.0 °F 81% 29.90 in 10.0 mi SSE 12.7 mph - N/A   Clear
12:35 PM 35.6 °F 26.2 °F 32.0 °F 87% 29.88 in 10.0 mi SSE 15.0 mph - N/A   Clear
1:15 PM 39.2 °F 32.5 °F 32.0 °F 75% 29.88 in 10.0 mi South 10.4 mph - N/A   Clear
1:35 PM 39.2 °F 35.0 °F 32.0 °F 75% 29.88 in 10.0 mi South 5.8 mph - N/A   Clear
2:15 PM 37.4 °F 32.8 °F 33.8 °F 87% 29.86 in 10.0 mi South 5.8 mph - N/A   Clear
2:35 PM 37.4 °F 30.8 °F 33.8 °F 87% 29.86 in 10.0 mi South 9.2 mph - N/A   Clear
2:55 PM 37.4 °F 32.1 °F 33.8 °F 87% 29.84 in 10.0 mi SSE 6.9 mph - N/A   Clear
3:15 PM 35.6 °F 29.2 °F 33.8 °F 93% 29.84 in 10.0 mi SSE 8.1 mph - N/A   Clear
3:35 PM 35.6 °F 30.7 °F 33.8 °F 93% 29.84 in 10.0 mi South 5.8 mph - N/A   Clear
3:55 PM 37.4 °F 32.8 °F 33.8 °F 87% 29.85 in 10.0 mi SSW 5.8 mph - N/A   Clear
4:15 PM 35.6 °F 30.7 °F 33.8 °F 93% 29.85 in 10.0 mi SSE 5.8 mph - N/A   Clear
4:35 PM 33.8 °F 28.6 °F 33.8 °F 100% 29.85 in 10.0 mi SSW 5.8 mph - N/A   Clear
4:55 PM 32.0 °F 26.4 °F 32.0 °F 100% 29.85 in 10.0 mi South 5.8 mph - N/A   Clear
5:15 PM 32.0 °F 25.6 °F 32.0 °F 100% 29.85 in 10.0 mi South 6.9 mph - N/A   Clear
5:35 PM 32.0 °F 24.8 °F 32.0 °F 100% 29.85 in 10.0 mi South 8.1 mph - N/A   Clear
5:55 PM 32.0 °F 27.5 °F 32.0 °F 100% 29.85 in 10.0 mi South 4.6 mph - N/A   Clear
6:15 PM 30.2 °F 23.4 °F 30.2 °F 100% 29.85 in 10.0 mi South 6.9 mph - N/A   Clear
6:35 PM 28.4 °F 22.2 °F 28.4 °F 100% 29.84 in 10.0 mi South 5.8 mph - N/A   Clear
6:55 PM 30.2 °F 25.4 °F 30.2 °F 100% 29.84 in 10.0 mi SSW 4.6 mph - N/A   Clear
7:15 PM 30.2 °F 24.3 °F 30.2 °F 100% 29.84 in 10.0 mi SW 5.8 mph - N/A   Clear
7:35 PM 28.4 °F 21.2 °F 28.4 °F 100% 29.84 in 10.0 mi WSW 6.9 mph - N/A   Clear
7:55 PM 28.4 °F 19.7 °F 28.4 °F 100% 29.84 in 10.0 mi WSW 9.2 mph - N/A   Clear
8:15 PM 32.0 °F 25.6 °F 32.0 °F 100% 29.83 in 10.0 mi WSW 6.9 mph - N/A   Clear
8:35 PM 32.0 °F 24.8 °F 32.0 °F 100% 29.83 in 10.0 mi WSW 8.1 mph - N/A   Clear
8:55 PM 32.0 °F 25.6 °F 32.0 °F 100% 29.83 in 10.0 mi WSW 6.9 mph - N/A   Clear
9:15 PM 32.0 °F 26.4 °F 32.0 °F 100% 29.83 in 10.0 mi WSW 5.8 mph - N/A   Clear
9:35 PM 32.0 °F 28.7 °F 32.0 °F 100% 29.84 in 10.0 mi WSW 3.5 mph - N/A   Clear
9:55 PM 32.0 °F 27.5 °F 32.0 °F 100% 29.85 in 10.0 mi NW 4.6 mph - N/A   Clear
10:15 PM 32.0 °F - 32.0 °F 100% 29.84 in 10.0 mi Calm Calm - N/A   Clear
10:35 PM 32.0 °F - 32.0 °F 100% 29.83 in 10.0 mi Calm Calm - N/A   Clear
10:55 PM 28.4 °F 23.3 °F 28.4 °F 100% 29.83 in 10.0 mi WSW 4.6 mph - N/A   Clear
11:15 PM 28.4 °F - 28.4 °F 100% 29.84 in 10.0 mi Calm Calm - N/A   Clear
11:35 PM 30.2 °F 25.4 °F 30.2 °F 100% 29.84 in 10.0 mi WSW 4.6 mph - N/A   Clear
11:55 PM 28.4 °F 22.2 °F 28.4 °F 100% 29.85 in 10.0 mi West 5.8 mph - N/A   Clear